| time (UTC) | temp F | wind direction | speed MPH | gust MPH | rain 1hr in | rain 24hr in | rain mn in | humidity % | barometer mb |
| 20260510002004 | 60 | 119 | 1.0 | 3.0 | 0.00 | 0.02 | 0.01 | 75 | 1029.3 |
| 20260510001504 | 60 | 110 | 0.0 | 4.0 | 0.00 | 0.02 | 0.01 | 75 | 1029.2 |
| 20260510001003 | 60 | 112 | 1.0 | 5.0 | 0.00 | 0.02 | 0.01 | 76 | 1029.2 |
| 20260510000503 | 60 | 119 | 1.0 | 5.0 | 0.00 | 0.02 | 0.01 | 77 | 1029.3 |
| 20260510000024 | 60 | 116 | 1.0 | 3.0 | 0.00 | 0.02 | 0.01 | 77 | 1029.3 |
| 20260509235504 | 60 | 109 | 1.0 | 5.0 | 0.00 | 0.02 | 0.01 | 78 | 1029.3 |
| 20260509235003 | 60 | 104 | 3.0 | 5.0 | 0.00 | 0.02 | 0.01 | 78 | 1029.3 |
| 20260509234503 | 59 | 96 | 5.0 | 9.0 | 0.00 | 0.02 | 0.01 | 79 | 1029.3 |
| 20260509234003 | 59 | 95 | 6.0 | 9.0 | 0.00 | 0.02 | 0.01 | 79 | 1029.3 |
| 20260509233503 | 59 | 101 | 7.0 | 9.0 | 0.00 | 0.02 | 0.01 | 79 | 1029.3 |
| 20260509233004 | 59 | 101 | 7.0 | 13.0 | 0.00 | 0.02 | 0.01 | 79 | 1029.2 |
| 20260509232503 | 58 | 95 | 6.0 | 13.0 | 0.00 | 0.02 | 0.01 | 81 | 1029.2 |
| 20260509232004 | 58 | 90 | 4.0 | 10.0 | 0.00 | 0.02 | 0.01 | 84 | 1029.2 |
| 20260509231503 | 58 | 93 | 3.0 | 10.0 | 0.00 | 0.02 | 0.01 | 86 | 1029.1 |
| 20260509231003 | 57 | 109 | 3.0 | 8.0 | 0.00 | 0.02 | 0.01 | 88 | 1029.1 |
| 20260509230503 | 57 | 115 | 4.0 | 8.0 | 0.00 | 0.02 | 0.01 | 90 | 1029.1 |
| 20260509230024 | 56 | 98 | 3.0 | 9.0 | 0.00 | 0.02 | 0.01 | 90 | 1029.1 |
| 20260509225503 | 56 | 88 | 1.0 | 9.0 | 0.00 | 0.02 | 0.01 | 91 | 1029.1 |
| 20260509225024 | 56 | 88 | 0.0 | 6.0 | 0.00 | 0.02 | 0.01 | 91 | 1029.1 |
| 20260509224504 | 55 | 110 | 0.0 | 3.0 | 0.00 | 0.02 | 0.01 | 91 | 1029.1 |
| 20260509224004 | 55 | 109 | 0.0 | 3.0 | 0.00 | 0.02 | 0.01 | 91 | 1029.0 |
| 20260509223503 | 55 | 107 | 0.0 | 3.0 | 0.00 | 0.02 | 0.01 | 91 | 1029.0 |
| 20260509223024 | 55 | 107 | 0.0 | 3.0 | 0.00 | 0.02 | 0.01 | 91 | 1028.9 |
| 20260509222504 | 54 | 107 | 0.0 | 1.0 | 0.00 | 0.02 | 0.01 | 91 | 1029.0 |
| 20260509222004 | 54 | 0 | 0.0 | 0.0 | 0.00 | 0.02 | 0.01 | 91 | 1028.9 |
| 20260509221503 | 54 | 16 | 0.0 | 3.0 | 0.00 | 0.02 | 0.01 | 91 | 1028.8 |
| 20260509221024 | 54 | 15 | 0.0 | 3.0 | 0.00 | 0.02 | 0.01 | 91 | 1028.7 |
| 20260509220504 | 54 | 317 | 0.0 | 1.0 | 0.00 | 0.02 | 0.01 | 91 | 1028.7 |
| 20260509220003 | 53 | 122 | 1.0 | 1.0 | 0.00 | 0.02 | 0.01 | 91 | 1028.7 |
| 20260509215504 | 53 | 122 | 1.0 | 5.0 | 0.00 | 0.02 | 0.01 | 91 | 1028.6 |
| 20260509215003 | 53 | 109 | 1.0 | 5.0 | 0.00 | 0.02 | 0.01 | 91 | 1028.4 |
| 20260509214504 | 53 | 56 | 0.0 | 4.0 | 0.00 | 0.02 | 0.01 | 91 | 1028.4 |
| 20260509214004 | 53 | 36 | 0.0 | 3.0 | 0.00 | 0.02 | 0.01 | 91 | 1028.3 |
| 20260509213504 | 53 | 0 | 0.0 | 0.0 | 0.00 | 0.02 | 0.01 | 91 | 1028.3 |
| 20260509213004 | 53 | 0 | 0.0 | 0.0 | 0.00 | 0.02 | 0.01 | 91 | 1028.2 |
| 20260509212504 | 53 | 0 | 0.0 | 0.0 | 0.00 | 0.02 | 0.01 | 91 | 1028.2 |
| 20260509212004 | 53 | 36 | 0.0 | 1.0 | 0.00 | 0.02 | 0.01 | 91 | 1028.2 |
| 20260509211504 | 52 | 36 | 0.0 | 1.0 | 0.00 | 0.02 | 0.01 | 91 | 1028.2 |
| 20260509211004 | 52 | 36 | 0.0 | 3.0 | 0.00 | 0.02 | 0.01 | 91 | 1028.2 |
| 20260509210504 | 52 | 36 | 0.0 | 3.0 | 0.00 | 0.02 | 0.01 | 91 | 1028.1 |
| 20260509210004 | 52 | 36 | 1.0 | 5.0 | 0.00 | 0.02 | 0.01 | 91 | 1028.0 |
| 20260509205504 | 53 | 36 | 3.0 | 5.0 | 0.00 | 0.02 | 0.01 | 91 | 1028.0 |
| 20260509205004 | 53 | 18 | 4.0 | 8.0 | 0.00 | 0.02 | 0.01 | 91 | 1028.0 |
| 20260509204504 | 53 | 13 | 3.0 | 8.0 | 0.00 | 0.02 | 0.01 | 91 | 1027.9 |
| 20260509204004 | 53 | 17 | 3.0 | 6.0 | 0.00 | 0.02 | 0.01 | 91 | 1027.9 |
| 20260509203504 | 53 | 21 | 3.0 | 6.0 | 0.00 | 0.02 | 0.01 | 91 | 1027.9 |
| 20260509203004 | 52 | 22 | 3.0 | 6.0 | 0.01 | 0.02 | 0.01 | 91 | 1027.9 |
| 20260509202525 | 52 | 12 | 3.0 | 5.0 | 0.01 | 0.02 | 0.01 | 91 | 1027.8 |
| 20260509202004 | 52 | 15 | 3.0 | 8.0 | 0.01 | 0.02 | 0.01 | 91 | 1027.7 |
| 20260509201525 | 52 | 24 | 3.0 | 8.0 | 0.01 | 0.02 | 0.01 | 91 | 1027.7 |
| 20260509201004 | 52 | 31 | 1.0 | 8.0 | 0.01 | 0.02 | 0.01 | 91 | 1027.7 |
| 20260509200504 | 51 | 62 | 0.0 | 6.0 | 0.01 | 0.02 | 0.01 | 91 | 1027.6 |
| 20260509200004 | 51 | 84 | 0.0 | 3.0 | 0.01 | 0.02 | 0.01 | 91 | 1027.5 |
| 20260509195504 | 52 | 75 | 0.0 | 1.0 | 0.01 | 0.02 | 0.01 | 91 | 1027.5 |
| 20260509195004 | 52 | 75 | 1.0 | 3.0 | 0.01 | 0.02 | 0.01 | 91 | 1027.4 |
| 20260509194504 | 51 | 75 | 1.0 | 5.0 | 0.01 | 0.02 | 0.01 | 91 | 1027.4 |
| 20260509194004 | 51 | 77 | 1.0 | 5.0 | 0.01 | 0.02 | 0.01 | 91 | 1027.3 |
| 20260509193504 | 51 | 101 | 1.0 | 3.0 | 0.01 | 0.02 | 0.01 | 91 | 1027.3 |
| 20260509193025 | 51 | 105 | 0.0 | 3.0 | 0.00 | 0.01 | 0.00 | 91 | 1027.3 |
| 20260509192525 | 51 | 105 | 0.0 | 3.0 | 0.00 | 0.01 | 0.00 | 91 | 1027.2 |
| 20260509192004 | 51 | 66 | 0.0 | 1.0 | 0.00 | 0.01 | 0.00 | 91 | 1027.3 |
| 20260509191504 | 51 | 0 | 0.0 | 0.0 | 0.00 | 0.01 | 0.00 | 91 | 1027.3 |
| 20260509191004 | 51 | 101 | 1.0 | 3.0 | 0.00 | 0.01 | 0.00 | 91 | 1027.2 |
| 20260509190525 | 51 | 92 | 3.0 | 5.0 | 0.00 | 0.01 | 0.00 | 90 | 1027.1 |
| 20260509190004 | 51 | 90 | 4.0 | 6.0 | 0.00 | 0.01 | 0.00 | 90 | 1027.1 |
| 20260509185504 | 51 | 91 | 5.0 | 8.0 | 0.00 | 0.01 | 0.00 | 90 | 1027.0 |
| 20260509185025 | 51 | 89 | 5.0 | 8.0 | 0.00 | 0.01 | 0.00 | 90 | 1027.0 |
| 20260509184504 | 51 | 91 | 4.0 | 8.0 | 0.00 | 0.01 | 0.00 | 90 | 1027.0 |
| 20260509184004 | 51 | 93 | 2.0 | 8.0 | 0.00 | 0.01 | 0.00 | 90 | 1027.0 |
| 20260509183504 | 52 | 86 | 3.0 | 8.0 | 0.00 | 0.01 | 0.00 | 90 | 1027.0 |
| 20260509183004 | 51 | 88 | 5.0 | 8.0 | 0.00 | 0.01 | 0.00 | 90 | 1026.9 |
| 20260509182504 | 51 | 92 | 6.0 | 9.0 | 0.00 | 0.01 | 0.00 | 90 | 1026.9 |
| 20260509182004 | 52 | 100 | 6.0 | 9.0 | 0.00 | 0.01 | 0.00 | 90 | 1026.9 |
| 20260509181504 | 52 | 106 | 6.0 | 9.0 | 0.00 | 0.01 | 0.00 | 90 | 1026.8 |
| 20260509181004 | 52 | 107 | 7.0 | 9.0 | 0.00 | 0.01 | 0.00 | 90 | 1026.9 |
| 20260509180504 | 52 | 109 | 7.0 | 10.0 | 0.00 | 0.01 | 0.00 | 90 | 1026.9 |
| 20260509180025 | 52 | 109 | 7.0 | 10.0 | 0.00 | 0.01 | 0.00 | 89 | 1026.8 |
| 20260509175525 | 52 | 112 | 7.0 | 10.0 | 0.00 | 0.01 | 0.00 | 90 | 1026.9 |
| 20260509175025 | 52 | 113 | 6.0 | 10.0 | 0.00 | 0.01 | 0.00 | 89 | 1026.8 |
| 20260509174504 | 53 | 110 | 6.0 | 9.0 | 0.00 | 0.01 | 0.00 | 90 | 1026.8 |
| 20260509174004 | 53 | 109 | 7.0 | 10.0 | 0.00 | 0.01 | 0.00 | 90 | 1026.8 |
| 20260509173525 | 53 | 109 | 8.0 | 10.0 | 0.00 | 0.01 | 0.00 | 90 | 1026.8 |
| 20260509173025 | 53 | 109 | 8.0 | 10.0 | 0.00 | 0.01 | 0.00 | 90 | 1026.9 |
| 20260509172503 | 53 | 116 | 8.0 | 13.0 | 0.00 | 0.01 | 0.00 | 90 | 1026.9 |
| 20260509172004 | 53 | 117 | 7.0 | 13.0 | 0.00 | 0.01 | 0.00 | 90 | 1026.8 |
| 20260509171504 | 52 | 110 | 7.0 | 10.0 | 0.00 | 0.01 | 0.00 | 90 | 1026.8 |
| 20260509171004 | 52 | 110 | 6.0 | 10.0 | 0.00 | 0.01 | 0.00 | 90 | 1026.9 |
| 20260509170504 | 52 | 113 | 6.0 | 10.0 | 0.00 | 0.01 | 0.00 | 89 | 1026.8 |
| 20260509170004 | 52 | 113 | 6.0 | 10.0 | 0.00 | 0.01 | 0.00 | 89 | 1026.9 |
| 20260509165525 | 53 | 113 | 6.0 | 10.0 | 0.00 | 0.01 | 0.00 | 89 | 1026.9 |
| 20260509165004 | 53 | 112 | 6.0 | 10.0 | 0.00 | 0.01 | 0.00 | 90 | 1027.0 |
| 20260509164504 | 53 | 112 | 6.0 | 10.0 | 0.00 | 0.01 | 0.00 | 89 | 1026.9 |
| 20260509164003 | 53 | 109 | 6.0 | 11.0 | 0.00 | 0.01 | 0.00 | 89 | 1027.1 |
| 20260509163504 | 53 | 108 | 6.0 | 11.0 | 0.00 | 0.01 | 0.00 | 89 | 1027.0 |
| 20260509163004 | 53 | 110 | 6.0 | 9.0 | 0.00 | 0.01 | 0.00 | 89 | 1027.1 |
| 20260509162504 | 53 | 109 | 7.0 | 10.0 | 0.00 | 0.01 | 0.00 | 89 | 1027.1 |
| 20260509162004 | 53 | 112 | 8.0 | 10.0 | 0.00 | 0.01 | 0.00 | 89 | 1027.1 |
| 20260509161504 | 54 | 112 | 7.0 | 13.0 | 0.00 | 0.01 | 0.00 | 89 | 1027.2 |
| 20260509161004 | 54 | 109 | 7.0 | 13.0 | 0.00 | 0.01 | 0.00 | 89 | 1027.2 |
| 20260509160504 | 54 | 107 | 6.0 | 11.0 | 0.00 | 0.01 | 0.00 | 89 | 1027.2 |
| 20260509160004 | 54 | 107 | 6.0 | 10.0 | 0.00 | 0.01 | 0.00 | 89 | 1027.2 |
| 20260509155504 | 54 | 107 | 6.0 | 10.0 | 0.00 | 0.01 | 0.00 | 89 | 1027.3 |
| 20260509155025 | 54 | 107 | 6.0 | 10.0 | 0.00 | 0.01 | 0.00 | 89 | 1027.3 |
| 20260509154504 | 54 | 110 | 6.0 | 9.0 | 0.00 | 0.01 | 0.00 | 89 | 1027.3 |
| 20260509154003 | 53 | 110 | 6.0 | 10.0 | 0.00 | 0.01 | 0.00 | 89 | 1027.3 |
| 20260509153504 | 53 | 111 | 6.0 | 10.0 | 0.00 | 0.01 | 0.00 | 89 | 1027.3 |
| 20260509153004 | 53 | 116 | 6.0 | 10.0 | 0.00 | 0.01 | 0.00 | 89 | 1027.4 |
| 20260509152503 | 53 | 119 | 7.0 | 10.0 | 0.00 | 0.01 | 0.00 | 88 | 1027.4 |
| 20260509152004 | 53 | 113 | 7.0 | 10.0 | 0.00 | 0.01 | 0.00 | 89 | 1027.4 |
| 20260509151503 | 53 | 108 | 7.0 | 10.0 | 0.00 | 0.01 | 0.00 | 89 | 1027.4 |
| 20260509151004 | 53 | 107 | 6.0 | 10.0 | 0.00 | 0.02 | 0.00 | 89 | 1027.4 |
| 20260509150504 | 53 | 108 | 6.0 | 10.0 | 0.00 | 0.02 | 0.00 | 89 | 1027.4 |
| 20260509150004 | 53 | 109 | 6.0 | 10.0 | 0.00 | 0.02 | 0.00 | 89 | 1027.4 |
| 20260509145504 | 53 | 108 | 6.0 | 9.0 | 0.00 | 0.02 | 0.00 | 89 | 1027.5 |
| 20260509145004 | 53 | 107 | 6.0 | 9.0 | 0.00 | 0.02 | 0.00 | 89 | 1027.5 |
| 20260509144504 | 53 | 106 | 6.0 | 9.0 | 0.00 | 0.02 | 0.00 | 89 | 1027.5 |
| 20260509144004 | 53 | 106 | 6.0 | 10.0 | 0.00 | 0.02 | 0.00 | 89 | 1027.4 |
| 20260509143503 | 53 | 105 | 6.0 | 10.0 | 0.00 | 0.02 | 0.00 | 89 | 1027.5 |
| 20260509143005 | 53 | 104 | 6.0 | 10.0 | 0.00 | 0.02 | 0.00 | 89 | 1027.5 |
| 20260509142525 | 53 | 104 | 6.0 | 10.0 | 0.00 | 0.02 | 0.02 | 89 | 1027.5 |
| 20260509142004 | 53 | 104 | 6.0 | 10.0 | 0.00 | 0.02 | 0.02 | 89 | 1027.5 |
| 20260509141525 | 53 | 104 | 7.0 | 10.0 | 0.00 | 0.02 | 0.02 | 89 | 1027.5 |
| 20260509141004 | 53 | 105 | 7.0 | 10.0 | 0.00 | 0.02 | 0.02 | 89 | 1027.5 |
| 20260509140504 | 53 | 104 | 7.0 | 10.0 | 0.00 | 0.02 | 0.02 | 89 | 1027.5 |
| 20260509140004 | 53 | 103 | 7.0 | 10.0 | 0.00 | 0.02 | 0.02 | 89 | 1027.5 |
| 20260509135503 | 53 | 106 | 6.0 | 10.0 | 0.00 | 0.02 | 0.02 | 89 | 1027.6 |
| 20260509135004 | 54 | 107 | 6.0 | 10.0 | 0.00 | 0.02 | 0.02 | 89 | 1027.6 |
| 20260509134503 | 54 | 105 | 6.0 | 9.0 | 0.00 | 0.02 | 0.02 | 89 | 1027.6 |
| 20260509134003 | 54 | 102 | 7.0 | 10.0 | 0.00 | 0.02 | 0.02 | 89 | 1027.6 |
| 20260509133503 | 53 | 100 | 8.0 | 10.0 | 0.00 | 0.02 | 0.02 | 89 | 1027.6 |
| 20260509133025 | 53 | 103 | 8.0 | 10.0 | 0.00 | 0.02 | 0.02 | 89 | 1027.6 |
| 20260509132503 | 53 | 105 | 8.0 | 10.0 | 0.00 | 0.02 | 0.02 | 89 | 1027.6 |
| 20260509132004 | 53 | 105 | 7.0 | 11.0 | 0.01 | 0.02 | 0.02 | 89 | 1027.6 |
| 20260509131525 | 53 | 104 | 7.0 | 11.0 | 0.01 | 0.02 | 0.02 | 89 | 1027.7 |
| 20260509131004 | 53 | 104 | 6.0 | 10.0 | 0.01 | 0.02 | 0.02 | 89 | 1027.7 |
| 20260509130504 | 53 | 104 | 6.0 | 10.0 | 0.01 | 0.02 | 0.02 | 89 | 1027.7 |
| 20260509130004 | 53 | 105 | 6.0 | 10.0 | 0.01 | 0.02 | 0.02 | 88 | 1027.8 |
| 20260509125504 | 54 | 105 | 6.0 | 9.0 | 0.01 | 0.02 | 0.02 | 89 | 1027.8 |
| 20260509125003 | 54 | 106 | 6.0 | 9.0 | 0.01 | 0.02 | 0.02 | 89 | 1027.8 |
| 20260509124503 | 54 | 107 | 6.0 | 10.0 | 0.01 | 0.02 | 0.02 | 89 | 1027.8 |
| 20260509124004 | 54 | 106 | 7.0 | 10.0 | 0.01 | 0.02 | 0.02 | 89 | 1027.7 |
| 20260509123503 | 54 | 104 | 7.0 | 11.0 | 0.01 | 0.02 | 0.02 | 89 | 1027.7 |
| 20260509123003 | 54 | 103 | 7.0 | 11.0 | 0.01 | 0.02 | 0.02 | 89 | 1027.7 |
| 20260509122503 | 54 | 105 | 7.0 | 10.0 | 0.01 | 0.02 | 0.02 | 89 | 1027.7 |
| 20260509122024 | 54 | 103 | 7.0 | 10.0 | 0.00 | 0.01 | 0.01 | 89 | 1027.7 |
| 20260509121504 | 54 | 103 | 6.0 | 10.0 | 0.00 | 0.01 | 0.01 | 89 | 1027.8 |
| 20260509121003 | 54 | 107 | 6.0 | 10.0 | 0.00 | 0.01 | 0.01 | 89 | 1027.7 |
| 20260509120503 | 54 | 109 | 6.0 | 10.0 | 0.00 | 0.01 | 0.01 | 89 | 1027.6 |
| 20260509120003 | 54 | 105 | 6.0 | 10.0 | 0.00 | 0.01 | 0.01 | 89 | 1027.7 |
| 20260509115503 | 54 | 101 | 6.0 | 9.0 | 0.00 | 0.01 | 0.01 | 90 | 1027.6 |
| 20260509115004 | 54 | 97 | 6.0 | 9.0 | 0.00 | 0.01 | 0.01 | 90 | 1027.5 |
| 20260509114503 | 54 | 97 | 5.0 | 9.0 | 0.00 | 0.01 | 0.01 | 90 | 1027.6 |
| 20260509114004 | 54 | 107 | 6.0 | 10.0 | 0.00 | 0.01 | 0.01 | 90 | 1027.5 |
| 20260509113525 | 54 | 114 | 6.0 | 10.0 | 0.00 | 0.01 | 0.01 | 90 | 1027.6 |
| 20260509113003 | 54 | 118 | 6.0 | 10.0 | 0.00 | 0.01 | 0.01 | 90 | 1027.5 |
| 20260509112503 | 54 | 121 | 5.0 | 10.0 | 0.00 | 0.01 | 0.01 | 90 | 1027.5 |
| 20260509112004 | 54 | 118 | 5.0 | 10.0 | 0.00 | 0.01 | 0.01 | 90 | 1027.5 |
| 20260509111503 | 54 | 107 | 5.0 | 9.0 | 0.00 | 0.01 | 0.01 | 90 | 1027.6 |
| 20260509111003 | 54 | 107 | 5.0 | 8.0 | 0.00 | 0.01 | 0.01 | 90 | 1027.5 |
| 20260509110504 | 53 | 108 | 5.0 | 8.0 | 0.00 | 0.01 | 0.01 | 89 | 1027.6 |
| 20260509110003 | 53 | 105 | 4.0 | 8.0 | 0.00 | 0.01 | 0.01 | 89 | 1027.6 |
| 20260509105524 | 53 | 108 | 4.0 | 8.0 | 0.00 | 0.01 | 0.01 | 89 | 1027.7 |
| 20260509105024 | 53 | 107 | 3.0 | 8.0 | 0.00 | 0.01 | 0.01 | 89 | 1027.6 |
| 20260509104524 | 53 | 98 | 3.0 | 6.0 | 0.00 | 0.01 | 0.01 | 89 | 1027.6 |
| 20260509104003 | 53 | 90 | 3.0 | 6.0 | 0.00 | 0.01 | 0.01 | 89 | 1027.6 |
| 20260509103504 | 53 | 91 | 3.0 | 5.0 | 0.00 | 0.01 | 0.01 | 88 | 1027.6 |
| 20260509103003 | 53 | 95 | 4.0 | 5.0 | 0.00 | 0.01 | 0.01 | 88 | 1027.6 |
| 20260509102503 | 54 | 100 | 5.0 | 8.0 | 0.00 | 0.01 | 0.01 | 88 | 1027.6 |
| 20260509102024 | 54 | 98 | 6.0 | 9.0 | 0.00 | 0.01 | 0.01 | 88 | 1027.6 |
| 20260509101503 | 54 | 94 | 6.0 | 10.0 | 0.00 | 0.01 | 0.01 | 88 | 1027.5 |
| 20260509101003 | 54 | 93 | 6.0 | 10.0 | 0.00 | 0.01 | 0.01 | 88 | 1027.6 |
| 20260509100504 | 54 | 93 | 6.0 | 10.0 | 0.00 | 0.01 | 0.01 | 87 | 1027.6 |
| 20260509100024 | 55 | 95 | 6.0 | 9.0 | 0.00 | 0.01 | 0.01 | 87 | 1027.6 |
| 20260509095525 | 55 | 95 | 6.0 | 9.0 | 0.00 | 0.01 | 0.01 | 87 | 1027.6 |
| 20260509095003 | 55 | 94 | 6.0 | 9.0 | 0.00 | 0.01 | 0.01 | 87 | 1027.5 |
| 20260509094503 | 55 | 95 | 6.0 | 9.0 | 0.00 | 0.01 | 0.01 | 86 | 1027.5 |
| 20260509094004 | 56 | 97 | 5.0 | 8.0 | 0.00 | 0.01 | 0.01 | 86 | 1027.6 |
| 20260509093503 | 56 | 97 | 5.0 | 8.0 | 0.00 | 0.01 | 0.01 | 86 | 1027.5 |
| 20260509093003 | 56 | 97 | 5.0 | 8.0 | 0.00 | 0.01 | 0.01 | 86 | 1027.5 |
| 20260509092504 | 56 | 97 | 5.0 | 6.0 | 0.00 | 0.01 | 0.01 | 86 | 1027.5 |
| 20260509092004 | 56 | 99 | 4.0 | 6.0 | 0.00 | 0.01 | 0.01 | 86 | 1027.5 |
| 20260509091503 | 56 | 103 | 4.0 | 6.0 | 0.00 | 0.01 | 0.01 | 85 | 1027.5 |
| 20260509091004 | 57 | 106 | 4.0 | 6.0 | 0.00 | 0.01 | 0.01 | 85 | 1027.5 |
| 20260509090503 | 57 | 102 | 4.0 | 6.0 | 0.00 | 0.01 | 0.01 | 85 | 1027.5 |
| 20260509090004 | 57 | 106 | 3.0 | 6.0 | 0.00 | 0.01 | 0.01 | 84 | 1027.5 |
| 20260509085525 | 58 | 120 | 3.0 | 6.0 | 0.00 | 0.01 | 0.01 | 84 | 1027.5 |
| 20260509085004 | 58 | 127 | 2.0 | 5.0 | 0.00 | 0.01 | 0.01 | 84 | 1027.4 |
| 20260509084504 | 58 | 128 | 1.0 | 5.0 | 0.00 | 0.01 | 0.01 | 83 | 1027.4 |
| 20260509084004 | 59 | 128 | 0.0 | 5.0 | 0.00 | 0.01 | 0.01 | 83 | 1027.4 |
| 20260509083504 | 59 | 127 | 0.0 | 4.0 | 0.00 | 0.01 | 0.01 | 83 | 1027.3 |
| 20260509083004 | 60 | 124 | 0.0 | 3.0 | 0.00 | 0.01 | 0.01 | 83 | 1027.2 |
| 20260509082504 | 60 | 125 | 0.0 | 3.0 | 0.00 | 0.01 | 0.01 | 83 | 1027.2 |
| 20260509082025 | 61 | 119 | 0.0 | 3.0 | 0.00 | 0.01 | 0.01 | 84 | 1027.1 |
| 20260509081525 | 61 | 201 | 0.0 | 5.0 | 0.00 | 0.01 | 0.01 | 84 | 1027.0 |
| 20260509081004 | 62 | 203 | 2.0 | 5.0 | 0.00 | 0.01 | 0.01 | 84 | 1027.1 |
| 20260509080525 | 62 | 198 | 3.0 | 8.0 | 0.00 | 0.01 | 0.01 | 83 | 1027.0 |
| 20260509080004 | 62 | 200 | 4.0 | 8.0 | 0.00 | 0.01 | 0.01 | 83 | 1027.0 |
| 20260509075504 | 62 | 200 | 3.0 | 8.0 | 0.00 | 0.01 | 0.01 | 83 | 1027.0 |
| 20260509075004 | 62 | 203 | 3.0 | 9.0 | 0.00 | 0.01 | 0.01 | 83 | 1026.9 |
| 20260509074504 | 62 | 212 | 3.0 | 9.0 | 0.00 | 0.01 | 0.01 | 82 | 1027.0 |
| 20260509074004 | 62 | 210 | 4.0 | 8.0 | 0.00 | 0.01 | 0.01 | 82 | 1027.0 |
| 20260509073504 | 62 | 203 | 4.0 | 10.0 | 0.00 | 0.01 | 0.01 | 82 | 1027.0 |
| 20260509073025 | 62 | 201 | 4.0 | 10.0 | 0.00 | 0.01 | 0.01 | 81 | 1027.0 |
| 20260509072504 | 62 | 200 | 4.0 | 10.0 | 0.00 | 0.01 | 0.01 | 81 | 1026.9 |
| 20260509072004 | 62 | 208 | 4.0 | 10.0 | 0.00 | 0.01 | 0.01 | 81 | 1026.9 |
| 20260509071504 | 62 | 216 | 4.0 | 9.0 | 0.00 | 0.01 | 0.01 | 81 | 1026.9 |
| 20260509071004 | 62 | 215 | 5.0 | 10.0 | 0.00 | 0.01 | 0.01 | 81 | 1026.9 |
| 20260509070504 | 63 | 223 | 5.0 | 10.0 | 0.00 | 0.01 | 0.01 | 80 | 1026.9 |
| 20260509070004 | 63 | 223 | 5.0 | 10.0 | 0.00 | 0.01 | 0.01 | 80 | 1026.9 |
| 20260509065504 | 63 | 208 | 5.0 | 14.0 | 0.00 | 0.01 | 0.01 | 79 | 1026.9 |
| 20260509065004 | 63 | 209 | 4.0 | 14.0 | 0.00 | 0.01 | 0.01 | 79 | 1026.9 |
| 20260509064504 | 64 | 223 | 4.0 | 10.0 | 0.00 | 0.01 | 0.01 | 79 | 1026.8 |
| 20260509064004 | 64 | 236 | 6.0 | 9.0 | 0.00 | 0.01 | 0.01 | 79 | 1026.9 |
| 20260509063504 | 64 | 222 | 6.0 | 10.0 | 0.00 | 0.01 | 0.01 | 79 | 1026.9 |
| 20260509063004 | 64 | 221 | 6.0 | 10.0 | 0.00 | 0.01 | 0.01 | 79 | 1026.9 |
| 20260509062525 | 63 | 234 | 5.0 | 10.0 | 0.00 | 0.01 | 0.01 | 79 | 1026.9 |
| 20260509062025 | 63 | 245 | 5.0 | 10.0 | 0.00 | 0.01 | 0.01 | 79 | 1026.9 |
| 20260509061504 | 63 | 249 | 5.0 | 10.0 | 0.00 | 0.01 | 0.01 | 79 | 1026.9 |
| 20260509061004 | 64 | 243 | 6.0 | 10.0 | 0.00 | 0.01 | 0.01 | 79 | 1026.9 |
| 20260509060504 | 64 | 231 | 7.0 | 13.0 | 0.00 | 0.01 | 0.01 | 79 | 1026.9 |
| 20260509060025 | 64 | 221 | 8.0 | 13.0 | 0.00 | 0.01 | 0.01 | 78 | 1026.9 |
| 20260509055504 | 64 | 215 | 6.0 | 13.0 | 0.00 | 0.01 | 0.01 | 78 | 1026.9 |
| 20260509055004 | 64 | 200 | 5.0 | 13.0 | 0.00 | 0.01 | 0.01 | 78 | 1026.9 |
| 20260509054504 | 64 | 207 | 5.0 | 11.0 | 0.00 | 0.01 | 0.01 | 79 | 1026.8 |
| 20260509054004 | 63 | 235 | 5.0 | 9.0 | 0.00 | 0.01 | 0.01 | 79 | 1026.8 |
| 20260509053504 | 63 | 230 | 6.0 | 10.0 | 0.00 | 0.01 | 0.01 | 79 | 1026.9 |
| 20260509053004 | 63 | 228 | 7.0 | 10.0 | 0.00 | 0.01 | 0.01 | 78 | 1026.9 |
| 20260509052504 | 63 | 222 | 7.0 | 13.0 | 0.00 | 0.01 | 0.01 | 78 | 1027.0 |
| 20260509052004 | 64 | 221 | 7.0 | 13.0 | 0.00 | 0.01 | 0.01 | 77 | 1026.9 |
| 20260509051504 | 64 | 229 | 6.0 | 11.0 | 0.00 | 0.01 | 0.01 | 77 | 1027.0 |
| 20260509051004 | 64 | 229 | 5.0 | 11.0 | 0.00 | 0.01 | 0.01 | 78 | 1026.9 |
| 20260509050504 | 64 | 222 | 6.0 | 10.0 | 0.00 | 0.01 | 0.01 | 78 | 1026.9 |
| 20260509050025 | 64 | 226 | 7.0 | 13.0 | 0.00 | 0.01 | 0.01 | 79 | 1027.0 |
| 20260509045504 | 63 | 238 | 8.0 | 13.0 | 0.00 | 0.01 | 0.01 | 79 | 1027.0 |
| 20260509045004 | 63 | 228 | 8.0 | 14.0 | 0.00 | 0.01 | 0.01 | 79 | 1027.0 |
| 20260509044504 | 64 | 221 | 8.0 | 14.0 | 0.00 | 0.01 | 0.01 | 79 | 1027.1 |
| 20260509044004 | 63 | 240 | 8.0 | 13.0 | 0.00 | 0.01 | 0.01 | 80 | 1027.1 |
| 20260509043504 | 63 | 244 | 9.0 | 13.0 | 0.00 | 0.01 | 0.01 | 80 | 1027.0 |
| 20260509043004 | 63 | 245 | 9.0 | 14.0 | 0.00 | 0.01 | 0.01 | 80 | 1027.2 |
| 20260509042504 | 62 | 246 | 8.0 | 14.0 | 0.00 | 0.01 | 0.01 | 80 | 1027.2 |
| 20260509042025 | 63 | 242 | 8.0 | 11.0 | 0.00 | 0.01 | 0.01 | 80 | 1027.2 |
| 20260509041504 | 63 | 237 | 8.0 | 13.0 | 0.00 | 0.01 | 0.01 | 79 | 1027.2 |
| 20260509041004 | 63 | 244 | 7.0 | 13.0 | 0.00 | 0.01 | 0.01 | 79 | 1027.2 |
| 20260509040525 | 63 | 249 | 6.0 | 13.0 | 0.00 | 0.01 | 0.01 | 78 | 1027.2 |
| 20260509040004 | 64 | 253 | 5.0 | 11.0 | 0.00 | 0.01 | 0.01 | 77 | 1027.3 |
| 20260509035504 | 64 | 252 | 6.0 | 10.0 | 0.00 | 0.01 | 0.01 | 77 | 1027.2 |
| 20260509035004 | 64 | 256 | 6.0 | 11.0 | 0.00 | 0.02 | 0.01 | 78 | 1027.2 |
| 20260509034525 | 64 | 249 | 7.0 | 11.0 | 0.00 | 0.02 | 0.01 | 76 | 1027.2 |
| 20260509034004 | 65 | 231 | 8.0 | 11.0 | 0.00 | 0.02 | 0.01 | 76 | 1027.3 |
| 20260509033504 | 65 | 237 | 7.0 | 13.0 | 0.00 | 0.02 | 0.01 | 75 | 1027.5 |
| 20260509033025 | 65 | 244 | 6.0 | 13.0 | 0.00 | 0.02 | 0.01 | 77 | 1027.4 |
| 20260509032504 | 64 | 230 | 6.0 | 13.0 | 0.00 | 0.02 | 0.01 | 78 | 1027.5 |
| 20260509032004 | 64 | 216 | 6.0 | 11.0 | 0.00 | 0.02 | 0.01 | 78 | 1027.6 |
| 20260509031503 | 63 | 231 | 6.0 | 11.0 | 0.00 | 0.02 | 0.01 | 79 | 1027.6 |
| 20260509031004 | 63 | 245 | 6.0 | 11.0 | 0.00 | 0.02 | 0.01 | 79 | 1027.8 |
| 20260509030504 | 63 | 245 | 6.0 | 9.0 | 0.00 | 0.02 | 0.01 | 79 | 1027.9 |
| 20260509030004 | 62 | 245 | 6.0 | 11.0 | 0.00 | 0.02 | 0.01 | 79 | 1028.0 |
| 20260509025524 | 62 | 247 | 5.0 | 11.0 | 0.00 | 0.03 | 0.01 | 78 | 1028.1 |
| 20260509025025 | 62 | 243 | 5.0 | 9.0 | 0.00 | 0.03 | 0.01 | 78 | 1028.2 |
| 20260509024503 | 62 | 248 | 6.0 | 10.0 | 0.00 | 0.03 | 0.01 | 78 | 1028.3 |
| 20260509024004 | 62 | 250 | 6.0 | 10.0 | 0.00 | 0.03 | 0.01 | 78 | 1028.4 |
| 20260509023504 | 62 | 248 | 6.0 | 11.0 | 0.00 | 0.03 | 0.01 | 78 | 1028.4 |
| 20260509023004 | 63 | 248 | 6.0 | 11.0 | 0.00 | 0.03 | 0.01 | 78 | 1028.5 |
| 20260509022504 | 63 | 244 | 5.0 | 10.0 | 0.00 | 0.03 | 0.01 | 78 | 1028.6 |
| 20260509022025 | 63 | 217 | 4.0 | 10.0 | 0.00 | 0.03 | 0.01 | 77 | 1028.6 |
| 20260509021524 | 63 | 211 | 4.0 | 10.0 | 0.00 | 0.03 | 0.01 | 77 | 1028.7 |
| 20260509021024 | 63 | 246 | 4.0 | 9.0 | 0.00 | 0.03 | 0.01 | 78 | 1028.8 |
| 20260509020504 | 62 | 255 | 4.0 | 8.0 | 0.00 | 0.04 | 0.01 | 78 | 1028.9 |
| 20260509020004 | 62 | 251 | 4.0 | 8.0 | 0.00 | 0.04 | 0.01 | 78 | 1029.0 |
| 20260509015504 | 62 | 265 | 5.0 | 9.0 | 0.00 | 0.04 | 0.01 | 79 | 1029.1 |
| 20260509015004 | 62 | 264 | 5.0 | 9.0 | 0.00 | 0.04 | 0.01 | 79 | 1029.2 |
| 20260509014504 | 62 | 247 | 4.0 | 9.0 | 0.00 | 0.04 | 0.01 | 79 | 1029.2 |
| 20260509014025 | 62 | 247 | 3.0 | 9.0 | 0.00 | 0.04 | 0.01 | 78 | 1029.3 |
| 20260509013504 | 63 | 228 | 2.0 | 6.0 | 0.00 | 0.04 | 0.01 | 77 | 1029.3 |
| 20260509013004 | 63 | 208 | 1.0 | 6.0 | 0.00 | 0.04 | 0.01 | 76 | 1029.3 |
| 20260509012504 | 64 | 208 | 1.0 | 6.0 | 0.00 | 0.04 | 0.01 | 78 | 1029.3 |
| 20260509012004 | 63 | 206 | 1.0 | 5.0 | 0.00 | 0.04 | 0.01 | 80 | 1029.3 |
| 20260509011524 | 62 | 221 | 2.0 | 6.0 | 0.00 | 0.04 | 0.01 | 81 | 1029.4 |
| 20260509011004 | 62 | 212 | 3.0 | 8.0 | 0.00 | 0.04 | 0.01 | 82 | 1029.4 |
| 20260509010504 | 61 | 231 | 3.0 | 8.0 | 0.00 | 0.04 | 0.01 | 83 | 1029.4 |
| 20260509010004 | 61 | 237 | 3.0 | 6.0 | 0.00 | 0.04 | 0.01 | 83 | 1029.4 |
| 20260509005525 | 61 | 220 | 2.0 | 6.0 | 0.00 | 0.04 | 0.01 | 83 | 1029.4 |
| 20260509005003 | 61 | 222 | 2.0 | 6.0 | 0.00 | 0.04 | 0.01 | 84 | 1029.4 |
| 20260509004503 | 61 | 250 | 3.0 | 8.0 | 0.00 | 0.04 | 0.01 | 85 | 1029.4 |
| 20260509004003 | 60 | 255 | 2.0 | 8.0 | 0.00 | 0.04 | 0.01 | 86 | 1029.5 |
| 20260509003504 | 60 | 254 | 2.0 | 6.0 | 0.00 | 0.04 | 0.01 | 86 | 1029.4 |
| 20260509003024 | 60 | 240 | 2.0 | 6.0 | 0.00 | 0.04 | 0.01 | 87 | 1029.4 |
| 20260509002504 | 60 | 223 | 3.0 | 8.0 | 0.00 | 0.04 | 0.01 | 88 | 1029.4 |